"2010-05-11 00:00:00",101260,8.89,328.5,8.11,1.254,14.99,104.9825,12.03,13.08,32.89,0,110.5,13.27,12.82,290.5
"2010-05-11 00:00:30",101261,10.33,331.8,7.86,1.375,14.31,105.0034,12.08,13.08,32.72,0,110.5,13.27,12.88,293.8
"2010-05-11 00:01:00",101262,9.66,326.6,3.201,0.483,11.52,105.0186,12.12,12.91,31.57,0,110.5,13.31,12.91,288.6
"2010-05-11 00:01:30",101263,10.62,329.2,4.197,0.566,11.59,105.0392,12.17,12.95,31,0,110.5,13.31,12.97,291.2
"2010-05-11 00:02:00",101264,11.29,325.3,3.254,0.571,11.87,105.0659,12.24,12.99,31.62,0,110.5,13.31,13.04,287.3
"2010-05-11 00:02:30",101265,10.54,325.9,5.035,1.041,12.6,105.071,12.25,13.06,32.36,0,110.5,13.27,13.05,287.9
"2010-05-11 00:03:00",101266,12.33,322.2,6.621,1.499,16.02,105.0732,12.26,13.32,33.9,0,110.5,13.27,13.05,284.2
"2010-05-11 00:03:30",101267,12.88,326.6,7.699,1.663,15.77,105.0916,12.31,13.35,33.76,0,110.5,13.27,13.10,288.6
"2010-05-11 00:04:00",101268,14.06,334.4,7.007,1.411,15.64,105.1034,12.34,13.37,32.47,0,110.5,13.27,13.13,296.4
"2010-05-11 00:04:30",101269,14.07,336,5.889,0.974,15.52,105.0944,12.31,13.33,32.25,0,110.5,13.27,13.11,298.0
"2010-05-11 00:05:00",101270,12.22,327.6,4.086,0.817,12.11,105.0752,12.26,13.14,31.54,0,110.5,13.27,13.06,289.6
"2010-05-11 00:05:30",101271,12.72,325.6,1.864,0.518,11.92,105.071,12.25,13.12,30.92,0,110.5,13.31,13.05,287.6
"2010-05-11 00:06:00",101272,12.51,336,7.888,1.533,15.13,105.071,12.25,13.38,30.72,0,110.5,13.27,13.05,298.0
"2010-05-11 00:06:30",101273,14.6,335.1,7.231,1.414,15.91,105.071,12.25,13.4,31.18,0,110.5,13.27,13.05,297.1
"2010-05-11 00:07:00",101274,13.68,336.7,6.986,1.567,15.51,105.0687,12.25,13.43,31.23,0,110.5,13.27,13.04,298.7
"2010-05-11 00:07:30",101275,13.92,339.1,7.11,1.119,15.5,105.0569,12.22,13.36,31.12,0,110.5,13.27,13.01,301.1
"2010-05-11 00:08:00",101276,12.24,326.9,6.207,1.359,12.84,105.038,12.17,13.28,30.92,0,110.5,13.27,12.96,288.9
"2010-05-11 00:08:30",101277,11.15,326.3,5.237,1.273,12.76,105.0383,12.17,13.18,30.82,0,110.5,13.27,12.96,288.3
"2010-05-11 00:09:00",101278,11.1,321.4,3.616,0.735,11.99,105.04,12.17,13.11,30.85,0,110.5,13.31,12.97,283.4
"2010-05-11 00:09:30",101279,11.36,324,10.53,1.538,14.29,105.0423,12.18,13.29,31.17,0,110.5,13.27,12.98,286.0
"2010-05-11 00:10:00",101280,13.06,331.9,6.465,1.336,16.18,105.0547,12.21,13.38,31.07,0,110.5,13.27,13.01,293.9
"2010-05-11 00:10:30",101281,11.65,332.9,7.905,1.57,15.17,105.0634,12.23,13.34,30.73,0,110.5,13.27,13.03,294.9
"2010-05-11 00:11:00",101282,11.23,334,9.81,2.44,14.53,105.071,12.25,13.3,30.41,0,110.5,13.27,13.05,296.0
"2010-05-11 00:11:30",101283,10.14,327.5,8.4,1.502,13.19,105.0721,12.26,13.3,30.23,0,110.5,13.27,13.05,289.5
"2010-05-11 00:12:00",101284,11.54,326,8.37,1.259,14.08,105.093,12.31,13.33,30.54,0,110.5,13.27,13.11,288.0
"2010-05-11 00:12:30",101285,11.21,315.4,3.105,0.946,11.67,105.1045,12.34,13.19,31.34,0,110.5,13.3,13.14,277.4
"2010-05-11 00:13:00",101286,12.23,312,5.379,1.372,12.56,105.1048,12.34,13.19,31.37,0,110.5,13.27,13.14,274.0
"2010-05-11 00:13:30",101287,11.83,316.9,5.034,1.191,14.91,105.1037,12.34,13.43,32.16,0,110.5,13.27,13.13,278.9
"2010-05-11 00:14:00",101288,12.14,320.4,7.373,1.422,15.75,105.0941,12.31,13.44,32.6,0,110.5,13.27,13.11,282.4
"2010-05-11 00:14:30",101289,12.17,327.7,10.93,1.055,16.19,105.0766,12.27,13.48,32.1,0,110.5,13.27,13.06,289.7
"2010-05-11 00:15:00",101290,11.36,327.2,7.09,1.828,13.86,105.0752,12.26,13.33,30.85,0,110.5,13.27,13.06,289.2
"2010-05-11 00:15:30",101291,9.04,324.2,7.145,0.719,12.09,105.0779,12.27,13.32,30.96,0,110.5,13.31,13.07,286.2
"2010-05-11 00:16:00",101292,9.13,308.2,1.399,0.514,11.63,105.083,12.28,13.21,31.03,0,110.5,13.31,13.08,270.2
"2010-05-11 00:16:30",101293,9.89,313.6,3.247,0.359,11.81,105.0856,12.29,13.25,30.81,0,110.5,13.31,13.09,275.6
"2010-05-11 00:17:00",101294,10.93,321.7,7.898,1.545,14.37,105.0897,12.3,13.36,31.13,0,110.5,13.28,13.10,283.7
"2010-05-11 00:17:30",101295,11.05,316,5.927,1.309,14.55,105.1122,12.36,13.4,31.03,0,110.5,13.28,13.15,278.0
"2010-05-11 00:18:00",101296,10.69,310.3,4.916,0.977,12.56,105.1208,12.38,13.26,30.53,0,110.5,13.32,13.18,272.3
"2010-05-11 00:18:30",101297,10.26,324.9,9.41,1.515,15.32,105.1205,12.38,13.53,31.16,0,110.5,13.28,13.18,286.9
"2010-05-11 00:19:00",101298,11.55,328.1,7.096,1.379,16.25,105.1214,12.38,13.53,31.49,0,110.5,13.28,13.18,290.1
"2010-05-11 00:19:30",101299,10.29,317.9,6.182,1.01,12.73,105.122,12.38,13.43,31.21,0,110.5,13.28,13.18,279.9
"2010-05-11 00:20:00",101300,10.16,324.5,8.13,1.919,13.53,105.1237,12.39,13.33,30.9,0,110.5,13.28,13.18,286.5
"2010-05-11 00:20:30",101301,7.42,324.5,3.827,0.337,11.44,105.128,12.4,13.3,30.86,0,110.5,13.32,13.20,286.5
"2010-05-11 00:21:00",101302,6.132,325.3,10.5,1.584,11.67,105.1378,12.42,13.38,30.45,0,110.5,13.28,13.22,287.3
"2010-05-11 00:21:30",101303,4.104,320.7,10.72,1.231,13.83,105.1546,12.47,13.38,30.34,0,110.5,13.28,13.26,282.7
"2010-05-11 00:22:00",101304,4.831,316.1,5.955,0.983,11.73,105.1638,12.49,13.32,30.25,0,110.5,13.32,13.29,278.1
"2010-05-11 00:22:30",101305,5.171,317.7,4.753,0.801,11.96,105.1623,12.49,13.33,30.24,0,110.5,13.32,13.28,279.7
"2010-05-11 00:23:00",101306,4.756,330.7,10.96,1.133,12.26,105.1801,12.53,13.36,30.01,0,110.5,13.32,13.33,292.7
"2010-05-11 00:23:30",101307,4.59,344.7,7.669,0.754,12.38,105.1952,12.57,13.38,30.02,0,110.5,13.32,13.37,306.7
"2010-05-11 00:24:00",101308,5.309,338.7,5.45,0.441,12.49,105.1943,12.57,13.4,29.62,0,110.5,13.32,13.37,300.7
"2010-05-11 00:24:30",101309,6.011,317.9,4.631,0.671,12.61,105.1926,12.57,13.41,29.55,0,110.5,13.32,13.36,279.9
"2010-05-11 00:25:00",101310,6.924,326.7,6.746,0.561,12.72,105.1917,12.56,13.42,30.01,0,110.5,13.32,13.36,288.7
"2010-05-11 00:25:30",101311,8.67,323.2,5.956,1.33,14.8,105.1899,12.56,13.61,30.95,0,110.5,13.29,13.35,285.2
"2010-05-11 00:26:00",101312,8.85,324.6,6.432,1.31,16.06,105.1805,12.53,13.7,31.1,0,110.5,13.29,13.33,286.6
"2010-05-11 00:26:30",101313,8.11,327.7,7.494,1.159,15.54,105.1546,12.47,13.67,31.24,0,110.5,13.28,13.26,289.7
"2010-05-11 00:27:00",101314,6.22,329.4,9.81,1.441,13.23,105.1416,12.43,13.54,31.35,0,110.5,13.28,13.23,291.4
"2010-05-11 00:27:30",101315,5.604,325,4.415,0.867,10.79,105.1182,12.37,13.34,31.02,0,110.5,13.31,13.17,287.0
"2010-05-11 00:28:00",101316,5.362,315.1,3.768,0.37,10.88,105.1134,12.36,13.33,31.1,0,110.5,13.31,13.16,277.1
"2010-05-11 00:28:30",101317,5.595,310.3,5.535,0.533,11.19,105.108,12.35,13.31,31.52,0,110.5,13.31,13.14,272.3
"2010-05-11 00:29:00",101318,4.107,306.7,4.264,0.366,11.78,105.1055,12.34,13.28,31.62,0,110.5,13.31,13.14,268.7
"2010-05-11 00:29:30",101319,4.482,307.5,8.6,0.419,12.06,105.0747,12.26,13.26,31.87,0,110.5,13.31,13.06,269.5
"2010-05-11 00:30:00",101320,4.931,314.3,2.433,0.371,12.3,105.0722,12.26,13.23,31.99,0,110.5,13.31,13.05,276.3
"2010-05-11 00:30:30",101321,4.958,319.6,4.275,0.428,12.5,105.0728,12.26,13.2,32.03,0,110.5,13.31,13.05,281.6
"2010-05-11 00:31:00",101322,7.46,317.3,4.845,1.497,15.2,105.0731,12.26,13.27,32.3,0,110.5,13.28,13.05,279.3
"2010-05-11 00:31:30",101323,8.79,318.8,4.894,1.039,17.27,105.0716,12.26,13.54,32.9,0,110.5,13.28,13.05,280.8
"2010-05-11 00:32:00",101324,8.09,307.7,7.84,0.827,17.23,105.0716,12.26,13.52,33.03,0,110.5,13.28,13.05,269.7
"2010-05-11 00:32:30",101325,7.018,292.8,9.29,1.201,14.9,105.0719,12.26,13.34,33.23,0,110.5,13.28,13.05,254.8
"2010-05-11 00:33:00",101326,5.536,282.9,6.299,0.875,11.41,105.0719,12.26,13.2,33.12,0,110.5,13.31,13.05,244.9
"2010-05-11 00:33:30",101327,6.591,283.8,4.239,0.641,11.32,105.0742,12.26,13.19,33.33,0,110.5,13.32,13.06,245.8
"2010-05-11 00:34:00",101328,4.325,290.2,4.871,0.377,11.6,105.0754,12.27,13.18,33.4,0,110.5,13.32,13.06,252.2
"2010-05-11 00:34:30",101329,3.961,279.5,5.574,0.326,12.1,105.0787,12.27,13.18,33.25,0,110.5,13.32,13.07,241.5
"2010-05-11 00:35:00",101330,3.951,282.4,4.272,0.388,12.46,105.0796,12.28,13.17,33.27,0,110.5,13.32,13.07,244.4
"2010-05-11 00:35:30",101331,4.663,272.9,4.656,0.856,12.7,105.0805,12.28,13.16,33.45,0,110.5,13.32,13.07,234.9
"2010-05-11 00:36:00",101332,4.437,282.1,8.32,0.821,12.79,105.0837,12.29,13.16,33.52,0,110.5,13.32,13.08,244.1
"2010-05-11 00:36:30",101333,4.093,291,3.604,0.376,12.84,105.0858,12.29,13.16,33.1,0,110.5,13.32,13.09,253.0
"2010-05-11 00:37:00",101334,4.628,287,2.567,0.406,12.9,105.0867,12.29,13.16,32.71,0,110.5,13.32,13.09,249.0
"2010-05-11 00:37:30",101335,5.566,286.3,5.086,1.447,14.92,105.0828,12.28,13.3,33.66,0,110.5,13.29,13.08,248.3
"2010-05-11 00:38:00",101336,6.324,284,6.874,1.127,16.99,105.0604,12.23,13.41,33.59,0,110.5,13.28,13.02,246.0
"2010-05-11 00:38:30",101337,5.82,281.8,5.352,1.393,16.26,105.0549,12.21,13.44,33.63,0,110.5,13.28,13.01,243.8
"2010-05-11 00:39:00",101338,4.022,283.3,5.447,1.722,13.45,105.0544,12.21,13.34,33.54,0,110.5,13.28,13.01,245.3
"2010-05-11 00:39:30",101339,2.895,286.6,6.049,0.308,11.13,105.0566,12.22,13.17,32.86,0,110.5,13.32,13.01,248.6
"2010-05-11 00:40:00",101340,3.465,286.9,5.198,0.363,10.34,105.0835,12.29,13.15,32.35,0,110.5,13.32,13.08,248.9
"2010-05-11 00:40:30",101341,2.233,286.5,15.29,0.743,10.56,105.0891,12.3,13.16,32.35,0,110.5,13.32,13.10,248.5
"2010-05-11 00:41:00",101342,1.981,311.3,8.86,0.335,10.78,105.0905,12.3,13.18,32.15,0,110.5,13.32,13.10,273.3
"2010-05-11 00:41:30",101343,2.031,310.2,4.921,0.471,11.12,105.0945,12.31,13.19,32.21,0,110.5,13.32,13.11,272.2
"2010-05-11 00:42:00",101344,2.535,306.7,3.201,0.234,11.36,105.1087,12.35,13.21,32.76,0,110.5,13.32,13.15,268.7
"2010-05-11 00:42:30",101345,2.665,306.9,4.048,0.204,11.72,105.119,12.38,13.2,32.74,0,110.5,13.32,13.17,268.9
"2010-05-11 00:43:00",101346,2.685,315.4,8.2,0.151,11.94,105.1169,12.37,13.23,32.74,0,110.5,13.32,13.17,277.4
"2010-05-11 00:43:30",101347,2.456,328.6,2.764,0.151,12.13,105.1155,12.37,13.23,32.56,0,110.5,13.32,13.16,290.6
"2010-05-11 00:44:00",101348,2.11,315.9,14.02,0.22,12.23,105.1152,12.37,13.23,33.11,0,110.5,13.32,13.16,277.9
"2010-05-11 00:44:30",101349,1.413,296.5,11.57,0.475,12.3,105.1123,12.36,13.23,33.62,0,110.5,13.32,13.16,258.5
"2010-05-11 00:45:00",101350,1.04,312.5,9.82,0.323,12.37,105.0983,12.32,13.23,33.54,0,110.5,13.32,13.12,274.5
"2010-05-11 00:45:30",101351,0.382,349.9,47.24,0.279,12.4,105.0936,12.31,13.22,33.58,0,110.5,13.32,13.11,311.9
"2010-05-11 00:46:00",101352,0.739,339.5,24.87,0.23,12.51,105.1045,12.34,13.24,33.82,0,110.5,13.32,13.14,301.5
"2010-05-11 00:46:30",101353,0.759,3.974,20.29,0.5,12.64,105.1051,12.34,13.26,34.05,0,110.5,13.32,13.14,326.0
"2010-05-11 00:47:00",101354,1.737,351.7,12.13,0.581,12.49,105.1104,12.36,13.26,33.43,0,110.5,13.32,13.15,313.7
"2010-05-11 00:47:30",101355,2.752,334.2,12.07,0.282,12.48,105.1048,12.34,13.26,33.08,0,110.5,13.32,13.14,296.2
"2010-05-11 00:48:00",101356,2.863,320.6,3.132,0.197,12.53,105.1048,12.34,13.24,32.78,0,110.5,13.32,13.14,282.6
"2010-05-11 00:48:30",101357,2.827,327.6,2.117,0.22,12.62,105.098,12.32,13.22,32.67,0,110.5,13.32,13.12,289.6
"2010-05-11 00:49:00",101358,2.466,331.3,3.772,0.185,12.71,105.0741,12.26,13.2,32.53,0,110.5,13.32,13.06,293.3
"2010-05-11 00:49:30",101359,2.722,337.8,4.037,0.103,12.76,105.071,12.25,13.18,32.38,0,110.5,13.32,13.05,299.8
"2010-05-11 00:50:00",101360,2.639,333.1,2.883,0.25,12.8,105.071,12.25,13.18,32.54,0,110.5,13.32,13.05,295.1
"2010-05-11 00:50:30",101361,3.272,330.9,5.55,0.698,13,105.071,12.25,13.21,32.8,0,110.5,13.28,13.05,292.9
"2010-05-11 00:51:00",101362,4.234,331.1,7.378,1.37,14.95,105.071,12.25,13.27,33.38,0,110.5,13.28,13.05,293.1
"2010-05-11 00:51:30",101363,4.198,332,8.73,1.425,14.15,105.071,12.25,13.19,33.23,0,110.5,13.28,13.05,294.0
"2010-05-11 00:52:00",101364,3.771,343.7,13.58,1.295,13.72,105.071,12.25,13.28,33.07,0,110.5,13.28,13.05,305.7
"2010-05-11 00:52:30",101365,6.072,342,7.29,1.349,15.18,105.071,12.25,13.33,33.39,0,110.5,13.28,13.05,304.0
"2010-05-11 00:53:00",101366,6.049,332.8,7.924,1.288,14.44,105.071,12.25,13.28,33.65,0,110.5,13.28,13.05,294.8
"2010-05-11 00:53:30",101367,5.507,324.6,6.99,1.279,15.06,105.071,12.25,13.33,33.77,0,110.5,13.28,13.05,286.6
"2010-05-11 00:54:00",101368,3.385,320.7,4.288,0.683,10.98,105.071,12.25,13.12,33.72,0,110.5,13.28,13.05,282.7
"2010-05-11 00:54:30",101369,3.244,330.7,4.095,0.371,10.75,105.0569,12.22,13.1,34.28,0,110.5,13.31,13.01,292.7
"2010-05-11 00:55:00",101370,3.714,332.7,3.299,0.108,10.83,105.0386,12.17,13.08,33.89,0,110.5,13.31,12.97,294.7
"2010-05-11 00:55:30",101371,3.73,337.4,2.008,0.254,11.14,105.0372,12.17,13.07,33.61,0,110.5,13.32,12.96,299.4
"2010-05-11 00:56:00",101372,3.472,332.1,4.674,0.131,11.41,105.0372,12.17,13.06,33.55,0,110.5,13.32,12.96,294.1
"2010-05-11 00:56:30",101373,2.904,330.9,2.053,0.227,11.74,105.0372,12.17,13.04,33.47,0,110.5,13.32,12.96,292.9
"2010-05-11 00:57:00",101374,4.097,351.2,9.89,1.518,14.29,105.0372,12.17,13.19,33.78,0,110.5,13.28,12.96,313.2
"2010-05-11 00:57:30",101375,4.095,347.2,7.665,1.129,13.62,105.0372,12.17,13.19,33.27,0,110.5,13.28,12.96,309.2
"2010-05-11 00:58:00",101376,3.256,339.7,4.339,0.206,12.21,105.0372,12.17,13.04,32.95,0,110.5,13.32,12.96,301.7
"2010-05-11 00:58:30",101377,3.196,332.6,3.049,0.178,12.13,105.0389,12.17,13.06,33.02,0,110.5,13.32,12.97,294.6
"2010-05-11 00:59:00",101378,4.435,344,16.23,1.674,14.18,105.04,12.17,13.13,33.2,0,110.5,13.28,12.97,306.0
"2010-05-11 00:59:30",101379,4.392,349,7.042,0.903,13.12,105.0603,12.23,13.21,33.26,0,110.5,13.27,13.02,311.0
"2010-05-11 01:00:00",101380,4.47,351.2,8.62,1.535,13.49,105.0687,12.25,13.1,33.12,0,110.5,13.28,13.04,313.2
"2010-05-11 01:00:30",101381,2.904,340.6,3.499,0.258,11.94,105.071,12.25,13.08,33,0,110.5,13.31,13.05,302.6
"2010-05-11 01:01:00",101382,3.399,349.7,7.057,0.983,12.47,105.071,12.25,13.08,32.97,0,110.5,13.27,13.05,311.7
"2010-05-11 01:01:30",101383,3.438,341.8,4.932,1.025,13.35,105.071,12.25,13.26,33.1,0,110.5,13.27,13.05,303.8
"2010-05-11 01:02:00",101384,3.625,342.8,4.029,1.099,12.99,105.071,12.25,13.09,32.64,0,110.5,13.27,13.05,304.8
"2010-05-11 01:02:30",101385,2.851,341.3,1.473,0.145,11.59,105.071,12.25,13.1,32.49,0,110.5,13.31,13.05,303.3
"2010-05-11 01:03:00",101386,2.128,335.3,8.43,0.276,11.52,105.071,12.25,13.12,32.46,0,110.5,13.31,13.05,297.3
"2010-05-11 01:03:30",101387,1.974,326,3.378,0.204,11.52,105.071,12.25,13.12,32.49,0,110.5,13.31,13.05,288.0
"2010-05-11 01:04:00",101388,1.867,342.6,9.07,0.198,11.88,105.071,12.25,13.13,32.43,0,110.5,13.31,13.05,304.6
"2010-05-11 01:04:30",101389,2.58,348.6,4.154,1.243,12.94,105.0879,12.3,13.16,32.22,0,110.5,13.27,13.09,310.6
"2010-05-11 01:05:00",101390,3.206,337.3,8.93,1.266,13.27,105.1045,12.34,13.23,32.01,0,110.5,13.27,13.14,299.3
"2010-05-11 01:05:30",101391,2.523,350.9,32.89,1.454,14.49,105.1079,12.35,13.26,32.01,0,110.5,13.27,13.14,312.9
"2010-05-11 01:06:00",101392,0.946,334.4,100,0.409,12.42,105.1327,12.41,13.22,31.97,0,110.5,13.31,13.21,296.4
"2010-05-11 01:06:30",101393,1.497,344.4,79.4,0.295,12.27,105.1392,12.43,13.25,31.77,0,110.5,13.31,13.22,306.4
"2010-05-11 01:07:00",101394,1.789,344,57.59,0.601,12.2,105.1634,12.49,13.27,31.73,0,110.5,13.31,13.29,306.0
"2010-05-11 01:07:30",101395,2.341,350.7,44.99,0.536,12.42,105.1713,12.51,13.29,31.42,0,110.5,13.31,13.31,312.7
"2010-05-11 01:08:00",101396,1.755,12.25,74.41,0.316,12.57,105.1856,12.55,13.32,31.4,0,110.5,13.31,13.34,334.2
"2010-05-11 01:08:30",101397,2.095,358.8,51.72,0.359,12.7,105.2172,12.63,13.37,31.13,0,110.5,13.32,13.42,320.8
"2010-05-11 01:09:00",101398,2.122,349.6,63.15,0.388,12.88,105.24,12.69,13.41,30.84,0,110.5,13.32,13.48,311.6
"2010-05-11 01:09:30",101399,1.289,353.8,95.3,0.464,12.94,105.2541,12.72,13.46,30.85,0,110.6,13.31,13.52,315.8
"2010-05-11 01:10:00",101400,1.751,343.4,63.66,0.552,12.85,105.2448,12.7,13.48,31.41,0,110.5,13.32,13.50,305.4
"2010-05-11 01:10:30",101401,2.161,336.2,38.29,0.693,12.89,105.2385,12.68,13.48,31.22,0,110.5,13.32,13.48,298.2
"2010-05-11 01:11:00",101402,2.402,335.3,5.177,0.161,12.85,105.2231,12.64,13.46,31.38,0,110.5,13.32,13.44,297.3
"2010-05-11 01:11:30",101403,2.642,333.3,3.086,0.319,12.96,105.2047,12.6,13.44,31.15,0,110.5,13.32,13.39,295.3
"2010-05-11 01:12:00",101404,3.261,345,20.76,0.884,14.75,105.2035,12.59,13.5,30.9,0,110.5,13.28,13.39,307.0
"2010-05-11 01:12:30",101405,3.163,352.8,5.834,1.254,14.22,105.2035,12.59,13.55,30.9,0,110.5,13.28,13.39,314.8
"2010-05-11 01:13:00",101406,5.224,341,9.1,1.053,14.43,105.2021,12.59,13.48,30.72,0,110.5,13.28,13.39,303.0
"2010-05-11 01:13:30",101407,6.15,345.1,9.83,1.083,16.4,105.2041,12.59,13.73,30.92,0,110.5,13.27,13.39,307.1
"2010-05-11 01:14:00",101408,5.396,347.8,8.2,1.135,15.38,105.2036,12.59,13.7,31.02,0,110.6,13.27,13.39,309.8
"2010-05-11 01:14:30",101409,2.723,339.3,8.52,0.541,11.43,105.185,12.55,13.43,31.07,0,110.6,13.31,13.34,301.3
"2010-05-11 01:15:00",101410,2.615,329,2.49,0.185,10.72,105.1692,12.51,13.4,31.27,0,110.5,13.31,13.30,291.0
"2010-05-11 01:15:30",101411,2.542,325.6,6.131,0.304,10.78,105.1683,12.5,13.39,31.29,0,110.5,13.31,13.30,287.6
"2010-05-11 01:16:00",101412,1.812,315.7,9.08,0.463,10.93,105.1558,12.47,13.35,32.23,0,110.5,13.31,13.27,277.7
"2010-05-11 01:16:30",101413,1.294,316.1,11.76,0.404,11.16,105.1345,12.42,13.34,32.38,0,110.5,13.31,13.21,278.1
"2010-05-11 01:17:00",101414,0.868,314.4,22.4,0.451,11.56,105.1215,12.38,13.33,32.25,0,110.5,13.3,13.18,276.4
"2010-05-11 01:17:30",101415,0.991,319.2,19.57,0.369,11.69,105.0993,12.33,13.29,32.21,0,110.5,13.3,13.12,281.2
"2010-05-11 01:18:00",101416,0.732,321.5,15.38,0.186,11.8,105.0979,12.32,13.28,31.38,0,110.5,13.3,13.12,283.5
"2010-05-11 01:18:30",101417,1.004,0.701,20.63,0.486,12.17,105.1193,12.38,13.26,31.4,0,110.5,13.3,13.17,322.7
"2010-05-11 01:19:00",101418,2.181,332.6,5.008,0.388,12.17,105.13,12.41,13.28,31.7,0,110.5,13.3,13.20,294.6
"2010-05-11 01:19:30",101419,1.207,359,11.34,0.592,12.67,105.1339,12.42,13.28,31.71,0,110.5,13.3,13.21,321.0
"2010-05-11 01:20:00",101420,0.948,353.6,13.72,0.335,12.75,105.1639,12.49,13.31,32.17,0,110.5,13.3,13.29,315.6
"2010-05-11 01:20:30",101421,0.75,357.7,13.83,0.303,12.91,105.1626,12.49,13.32,32.02,0,110.6,13.3,13.28,319.7
"2010-05-11 01:21:00",101422,0.471,4.15,19.27,0.262,12.94,105.1748,12.52,13.34,31.85,0,110.6,13.3,13.32,326.1
"2010-05-11 01:21:30",101423,0.546,9.1,13.05,0.225,12.9,105.1967,12.58,13.38,31.88,0,110.5,13.3,13.37,331.1
"2010-05-11 01:22:00",101424,0.849,23.81,8.28,0.11,12.69,105.2007,12.59,13.4,32.19,0,110.5,13.31,13.38,345.8
"2010-05-11 01:22:30",101425,1.537,24.87,7.759,0.474,12.71,105.1961,12.57,13.41,32.04,0,110.5,13.31,13.37,346.9
"2010-05-11 01:23:00",101426,1.848,26.68,2.739,0.103,12.92,105.1955,12.57,13.43,31.78,0,110.5,13.31,13.37,348.7
"2010-05-11 01:23:30",101427,2.83,28.79,8.71,1.334,15.18,105.1926,12.57,13.57,32.12,0,110.5,13.28,13.36,350.8
"2010-05-11 01:24:00",101428,1.264,26.12,3.093,0.129,13,105.1944,12.57,13.49,32.25,0,110.5,13.31,13.37,348.1
"2010-05-11 01:24:30",101429,1.187,32.23,8.59,0.107,12.7,105.1914,12.56,13.43,32.27,0,110.5,13.31,13.36,354.2
"2010-05-11 01:25:00",101430,1.123,26.01,5.161,0.217,12.58,105.1926,12.57,13.43,32.31,0,110.5,13.31,13.36,348.0
"2010-05-11 01:25:30",101431,2.478,27.75,6.175,1.339,14.5,105.1917,12.56,13.64,32.59,0,110.5,13.28,13.36,349.8
"2010-05-11 01:26:00",101432,4.013,39.48,9.19,1.311,16.14,105.1908,12.56,13.68,31.82,0,110.5,13.28,13.36,1.5
"2010-05-11 01:26:30",101433,3.268,21.19,11.74,1.38,15.68,105.1935,12.57,13.5,31.67,0,110.5,13.27,13.36,343.2
"2010-05-11 01:27:00",101434,1.871,9.45,6.328,0.984,12.56,105.2025,12.59,13.6,31.78,0,110.5,13.27,13.39,331.5
"2010-05-11 01:27:30",101435,1.865,1.218,8.97,0.232,10.89,105.227,12.65,13.46,31.94,0,110.5,13.31,13.45,323.2
"2010-05-11 01:28:00",101436,1.925,348.7,5.479,0.199,10.51,105.1981,12.58,13.45,32.05,0,110.5,13.31,13.38,310.7
"2010-05-11 01:28:30",101437,1.832,346.8,7.658,0.305,10.81,105.1878,12.55,13.42,32.14,0,110.5,13.31,13.35,308.8
"2010-05-11 01:29:00",101438,2.177,346.8,5.27,0.2,10.98,105.1561,12.47,13.39,32.11,0,110.5,13.31,13.27,308.8
"2010-05-11 01:29:30",101439,2.103,350,5.824,0.301,11.36,105.1537,12.47,13.36,32.08,0,110.5,13.31,13.26,312.0
"2010-05-11 01:30:00",101440,2.774,342.2,2.729,0.212,11.62,105.1427,12.44,13.34,32,0,110.5,13.31,13.23,304.2
"2010-05-11 01:30:30",101441,3.343,348.1,4.792,0.187,11.95,105.1249,12.39,13.36,32.05,0,110.5,13.31,13.19,310.1
"2010-05-11 01:31:00",101442,4.708,354,9.04,1.362,14.46,105.1226,12.39,13.42,32.24,0,110.5,13.27,13.18,316.0
"2010-05-11 01:31:30",101443,3.641,350.1,2.825,0.363,12.41,105.1259,12.39,13.37,32.22,0,110.5,13.31,13.19,312.1
"2010-05-11 01:32:00",101444,3.241,352.3,4.368,0.546,12.47,105.1265,12.4,13.28,32.07,0,110.5,13.31,13.19,314.3
"2010-05-11 01:32:30",101445,3.164,358.8,8.71,0.843,13.7,105.1271,12.4,13.42,32.52,0,110.5,13.28,13.19,320.8
"2010-05-11 01:33:00",101446,4.146,4.68,10.66,1.589,13.4,105.1273,12.4,13.28,32.84,0,110.5,13.27,13.19,326.7
"2010-05-11 01:33:30",101447,3.845,0.026,8.84,1.493,14.67,105.1285,12.4,13.47,33.27,0,110.5,13.27,13.20,322.0
"2010-05-11 01:34:00",101448,4.753,359.9,11.83,1.399,13.88,105.1283,12.4,13.4,33.33,0,110.5,13.27,13.20,321.9
"2010-05-11 01:34:30",101449,4.992,338.5,6.263,1.247,12.55,105.1103,12.35,13.42,33.51,0,110.5,13.27,13.15,300.5
"2010-05-11 01:35:00",101450,5.019,333.5,12.38,0.272,11.2,105.0971,12.32,13.23,32.63,0,110.5,13.31,13.12,295.5
"2010-05-11 01:35:30",101451,4.225,342.6,6.237,0.454,11.41,105.094,12.31,13.2,32.93,0,110.5,13.31,13.11,304.6
"2010-05-11 01:36:00",101452,4.046,348.4,14.96,1.657,13.64,105.0755,12.27,13.34,32.99,0,110.5,13.27,13.06,310.4
"2010-05-11 01:36:30",101453,3.096,336.9,4.676,1.093,12.19,105.0677,12.25,13.29,32.59,0,110.5,13.29,13.04,298.9
"2010-05-11 01:37:00",101454,3.022,347.1,8.71,0.635,11.89,105.0619,12.23,13.12,32.65,0,110.5,13.31,13.03,309.1
"2010-05-11 01:37:30",101455,1.279,6.85,14.32,0.397,12.12,105.0605,12.23,13.17,32.85,0,110.5,13.31,13.02,328.9
"2010-05-11 01:38:00",101456,4.825,9.38,16.47,1.439,14.19,105.0701,12.25,13.21,32.89,0,110.5,13.27,13.05,331.4
"2010-05-11 01:38:30",101457,5.116,349.3,10.69,0.384,11.98,105.0704,12.25,13.19,32.35,0,110.5,13.31,13.05,311.3
"2010-05-11 01:39:00",101458,6.396,330.6,9.13,1.191,13.98,105.0586,12.22,13.35,32.63,0,110.5,13.27,13.02,292.6
"2010-05-11 01:39:30",101459,7.318,336.9,7.577,1.36,15.79,105.0372,12.17,13.29,32.96,0,110.6,13.27,12.96,298.9
"2010-05-11 01:40:00",101460,6.145,308.6,7.709,0.743,11.99,105.036,12.16,13.1,33.15,0,110.5,13.28,12.96,270.6
"2010-05-11 01:40:30",101461,5.88,319.8,5.646,1.215,13.25,105.0101,12.1,13.1,32.95,0,110.5,13.27,12.89,281.8
"2010-05-11 01:41:00",101462,5.855,323.4,7.223,2.031,13.89,105.0034,12.08,13.15,33.09,0,110.5,13.27,12.88,285.4
"2010-05-11 01:41:30",101463,4.57,326,11.95,1.746,13.73,104.9977,12.07,13.03,33.55,0,110.5,13.28,12.86,288.0
"2010-05-11 01:42:00",101464,5.353,324.8,7.352,1.464,13.58,104.9758,12.01,13.11,32.82,0,110.5,13.28,12.80,286.8
"2010-05-11 01:42:30",101465,5.505,323.4,7.495,1.101,12.01,104.9696,11.99,12.93,32.84,0,110.5,13.28,12.79,285.4
"2010-05-11 01:43:00",101466,6.243,330.5,5.409,1.352,12.42,104.9538,11.95,12.93,32.58,0,110.5,13.28,12.75,292.5
"2010-05-11 01:43:30",101467,8.34,335.8,7.429,1.126,15.59,104.9358,11.91,13.13,33.24,0,110.5,13.28,12.70,297.8
"2010-05-11 01:44:00",101468,7.444,312.3,8.31,1.335,15.29,104.9358,11.91,13.14,34.01,0,110.5,13.28,12.70,274.3
"2010-05-11 01:44:30",101469,6.847,316.8,6.156,1.219,13.6,104.9352,11.91,13,33.64,0,110.5,13.28,12.70,278.8
"2010-05-11 01:45:00",101470,6.415,312.8,5.141,0.974,11.86,104.9118,11.85,12.8,32.7,0,110.5,13.28,12.64,274.8
"2010-05-11 01:45:30",101471,7.756,322.3,6.536,1.232,13.55,104.902,11.82,12.94,33.19,0,110.5,13.28,12.61,284.3
"2010-05-11 01:46:00",101472,6.619,306.5,8.24,0.878,12.84,104.902,11.82,12.92,32.92,0,110.5,13.28,12.61,268.5
"2010-05-11 01:46:30",101473,7.864,321,4.514,0.517,11.93,104.8972,11.81,12.76,32.44,0,110.5,13.28,12.60,283.0
"2010-05-11 01:47:00",101474,8.17,335,12.33,1.601,14.35,104.8814,11.77,12.89,31.98,0,110.5,13.28,12.56,297.0
"2010-05-11 01:47:30",101475,8.82,337.3,7.585,1.521,15.27,104.8682,11.73,12.96,32.34,0,110.5,13.28,12.53,299.3
"2010-05-11 01:48:00",101476,8.54,337.5,11.07,1.513,15,104.869,11.74,13.02,32.29,0,110.5,13.28,12.53,299.5